TimeEDT,TemperatureF,Dew PointF,Humidity,Sea Level PressureIn,VisibilityMPH,Wind Direction,Wind SpeedMPH,Gust SpeedMPH,PrecipitationIn,Events,Conditions,WindDirDegrees,DateUTC
12:04 AM,53.6,53.6,100,30.26,1.8,Calm,Calm,-,N/A,,Clear,0,2013-09-29 04:04:00
12:13 AM,53.6,53.6,100,30.26,1.2,Calm,Calm,-,N/A,,Partly Cloudy,0,2013-09-29 04:13:00
12:26 AM,53.6,53.6,100,30.25,0.5,Calm,Calm,-,N/A,Fog,Fog,0,2013-09-29 04:26:00
12:53 AM,53.1,52.0,96,30.26,2.0,Calm,Calm,-,0.01,,Partly Cloudy,0,2013-09-29 04:53:00
1:00 AM,53.6,51.8,94,30.25,9.0,Calm,Calm,-,N/A,,Clear,0,2013-09-29 05:00:00
1:10 AM,53.6,51.8,94,30.25,4.0,Calm,Calm,-,N/A,,Partly Cloudy,0,2013-09-29 05:10:00
1:18 AM,53.6,53.6,100,30.25,1.2,Calm,Calm,-,N/A,,Partly Cloudy,0,2013-09-29 05:18:00
1:25 AM,53.6,51.8,94,30.25,0.2,Calm,Calm,-,N/A,Fog,Fog,0,2013-09-29 05:25:00
1:47 AM,51.8,51.8,100,30.25,1.2,Calm,Calm,-,N/A,,Partly Cloudy,0,2013-09-29 05:47:00
1:51 AM,51.8,51.8,100,30.25,3.0,Calm,Calm,-,N/A,,Partly Cloudy,0,2013-09-29 05:51:00
1:53 AM,53.1,52.0,96,30.25,5.0,Calm,Calm,-,N/A,,Partly Cloudy,0,2013-09-29 05:53:00
2:31 AM,51.8,50.0,94,30.24,1.8,Calm,Calm,-,N/A,,Clear,0,2013-09-29 06:31:00
2:41 AM,51.8,51.8,100,30.24,3.0,Calm,Calm,-,N/A,,Clear,0,2013-09-29 06:41:00
2:53 AM,52.0,51.1,97,30.23,7.0,Calm,Calm,-,N/A,,Clear,0,2013-09-29 06:53:00
3:30 AM,51.8,50.0,94,30.23,1.8,Calm,Calm,-,N/A,,Clear,0,2013-09-29 07:30:00
3:36 AM,51.8,50.0,94,30.22,0.8,Calm,Calm,-,N/A,,Mist,0,2013-09-29 07:36:00
3:53 AM,50.0,48.9,96,30.22,0.2,Calm,Calm,-,N/A,Fog,Fog,0,2013-09-29 07:53:00
4:20 AM,50.0,48.2,94,30.22,3.0,NE,3.5,-,N/A,,Mostly Cloudy,40,2013-09-29 08:20:00
4:28 AM,50.0,48.2,94,30.22,7.0,Calm,Calm,-,N/A,,Scattered Clouds,0,2013-09-29 08:28:00
4:33 AM,51.8,51.8,100,30.22,1.8,Calm,Calm,-,N/A,,Partly Cloudy,0,2013-09-29 08:33:00
4:40 AM,50.0,50.0,100,30.21,0.8,Calm,Calm,-,N/A,,Mist,0,2013-09-29 08:40:00
4:53 AM,50.0,48.9,96,30.22,0.5,Calm,Calm,-,N/A,Fog,Fog,0,2013-09-29 08:53:00
5:13 AM,50.0,48.2,94,30.21,1.0,Calm,Calm,-,N/A,,Overcast,0,2013-09-29 09:13:00
5:21 AM,48.2,48.2,100,30.21,4.0,Calm,Calm,-,N/A,,Overcast,0,2013-09-29 09:21:00
5:53 AM,51.1,51.1,100,30.22,3.0,NE,3.5,-,N/A,,Overcast,40,2013-09-29 09:53:00
5:55 AM,51.8,51.8,100,30.22,1.8,NE,3.5,-,N/A,,Overcast,40,2013-09-29 09:55:00
6:05 AM,51.8,51.8,100,30.22,0.8,Calm,Calm,-,N/A,,Overcast,0,2013-09-29 10:05:00
6:15 AM,51.8,51.8,100,30.22,1.2,North,3.5,-,N/A,,Overcast,10,2013-09-29 10:15:00
6:26 AM,51.8,51.8,100,30.22,3.0,NNE,3.5,-,N/A,,Overcast,20,2013-09-29 10:26:00
6:53 AM,51.1,51.1,100,30.22,4.0,North,3.5,-,N/A,,Overcast,10,2013-09-29 10:53:00
7:05 AM,51.8,50.0,94,30.22,1.5,NNE,4.6,-,N/A,,Overcast,20,2013-09-29 11:05:00
7:18 AM,51.8,50.0,94,30.22,0.5,North,4.6,-,N/A,Fog,Fog,10,2013-09-29 11:18:00
7:50 AM,51.8,51.8,100,30.23,1.8,Calm,Calm,-,N/A,,Overcast,0,2013-09-29 11:50:00
7:53 AM,51.1,51.1,100,30.23,2.0,Calm,Calm,-,N/A,,Overcast,0,2013-09-29 11:53:00
8:08 AM,51.8,51.8,100,30.24,5.0,Calm,Calm,-,N/A,,Overcast,0,2013-09-29 12:08:00
8:26 AM,51.8,51.8,100,30.23,4.0,Calm,Calm,-,N/A,,Overcast,0,2013-09-29 12:26:00
8:53 AM,53.1,52.0,96,30.24,5.0,Calm,Calm,-,N/A,,Overcast,0,2013-09-29 12:53:00
9:53 AM,55.9,53.1,90,30.23,3.0,Calm,Calm,-,N/A,,Overcast,0,2013-09-29 13:53:00
10:11 AM,57.2,53.6,88,30.23,6.0,Calm,Calm,-,N/A,,Overcast,0,2013-09-29 14:11:00
10:53 AM,61.0,55.0,81,30.22,10.0,Calm,Calm,-,N/A,,Mostly Cloudy,0,2013-09-29 14:53:00
11:01 AM,60.8,55.4,82,30.22,10.0,Calm,Calm,-,N/A,,Scattered Clouds,0,2013-09-29 15:01:00
11:53 AM,64.9,55.0,70,30.19,10.0,NW,3.5,-,N/A,,Clear,320,2013-09-29 15:53:00
12:53 PM,68.0,48.9,50,30.18,10.0,NNW,5.8,-,N/A,,Clear,330,2013-09-29 16:53:00
1:53 PM,68.0,50.0,52,30.15,10.0,Calm,Calm,-,N/A,,Scattered Clouds,0,2013-09-29 17:53:00
2:53 PM,71.1,48.9,45,30.13,10.0,Calm,Calm,-,N/A,,Partly Cloudy,0,2013-09-29 18:53:00
3:53 PM,69.1,48.0,47,30.11,10.0,Calm,Calm,-,N/A,,Partly Cloudy,0,2013-09-29 19:53:00
4:53 PM,70.0,48.0,46,30.10,10.0,Calm,Calm,-,N/A,,Scattered Clouds,0,2013-09-29 20:53:00
5:53 PM,68.0,46.0,45,30.10,10.0,ESE,4.6,-,N/A,,Clear,110,2013-09-29 21:53:00
6:53 PM,59.0,52.0,78,30.10,10.0,South,3.5,-,N/A,,Clear,170,2013-09-29 22:53:00
7:53 PM,59.0,52.0,78,30.11,10.0,Calm,Calm,-,N/A,,Clear,0,2013-09-29 23:53:00
8:53 PM,55.0,53.1,93,30.12,10.0,Calm,Calm,-,N/A,,Clear,0,2013-09-30 00:53:00
9:53 PM,54.0,53.1,97,30.12,10.0,Calm,Calm,-,N/A,,Clear,0,2013-09-30 01:53:00
10:53 PM,53.1,52.0,96,30.12,9.0,Calm,Calm,-,N/A,,Clear,0,2013-09-30 02:53:00
11:49 PM,50.0,48.2,94,30.12,0.8,Calm,Calm,-,N/A,,Clear,0,2013-09-30 03:49:00
11:53 PM,50.0,48.0,93,30.12,0.8,Calm,Calm,-,N/A,,Clear,0,2013-09-30 03:53:00
11:57 PM,50.0,48.2,94,30.12,3.0,Calm,Calm,-,N/A,,Clear,0,2013-09-30 03:57:00